NPV7827 LICT-LICG

Flight info

Callsign NPV7827
Flight time 0h 26m
Altitude 17000
Route MEGAN M740 ROBET
Aircraft C25C/M-SDE2E3FGHRWXY/LB1

Departure

Time 2026-04-26 14:58
Airport Vincenzo Florio Airport Trapani-Birgi (LICT)

Arrival

Time 2026-04-26 15:25
Airport Pantelleria Airport (LICG)
Time Latitude Longitude Altitude Speed Heading
2026-04-26 14:45 37.90352 12.49465 22 ft 0 kts 260°
2026-04-26 14:51 37.90350 12.49460 22 ft 3 kts 232°
2026-04-26 14:52 37.90336 12.49466 25 ft 3 kts 116°
2026-04-26 14:52 37.90354 12.49510 22 ft 2 kts 62°
2026-04-26 14:52 37.90368 12.49554 23 ft 4 kts 50°
2026-04-26 14:52 37.90370 12.49557 22 ft 1 kts 43°
2026-04-26 14:53 37.90368 12.49578 22 ft 0 kts 129°
2026-04-26 14:56 37.90347 12.49612 24 ft 17 kts 127°
2026-04-26 14:56 37.90303 12.49728 26 ft 10 kts 56°
2026-04-26 14:56 37.90358 12.49731 24 ft 9 kts 320°
2026-04-26 14:57 37.90414 12.49649 23 ft 9 kts 354°
2026-04-26 14:57 37.90455 12.49687 23 ft 12 kts 35°
2026-04-26 14:57 37.90473 12.49705 23 ft 3 kts 37°
2026-04-26 14:57 37.90547 12.49752 24 ft 13 kts 333°
2026-04-26 14:58 37.90566 12.49730 23 ft 0 kts 307°
2026-04-26 14:58 37.90587 12.49697 24 ft 29 kts 308°
2026-04-26 14:58 37.90948 12.49140 66 ft 128 kts 313°
2026-04-26 14:58 37.91611 12.48181 888 ft 159 kts 313°
2026-04-26 14:59 37.92616 12.47268 1744 ft 198 kts 342°
2026-04-26 14:59 37.94085 12.46968 2950 ft 216 kts 356°
2026-04-26 14:59 37.95573 12.46837 4632 ft 220 kts 354°
2026-04-26 14:59 37.96547 12.46459 5569 ft 224 kts 331°
2026-04-26 15:00 37.98382 12.45219 7628 ft 225 kts 334°
2026-04-26 15:00 37.99804 12.44306 9006 ft 231 kts 331°
2026-04-26 15:00 38.01248 12.43369 10431 ft 235 kts 332°
2026-04-26 15:00 38.02704 12.42421 11677 ft 243 kts 331°
2026-04-26 15:01 38.04229 12.41442 13003 ft 248 kts 331°
2026-04-26 15:01 38.05788 12.40431 14281 ft 255 kts 332°
2026-04-26 15:01 38.07374 12.39383 15499 ft 258 kts 329°
2026-04-26 15:01 38.08975 12.38280 16609 ft 270 kts 329°
2026-04-26 15:02 38.10714 12.37093 17033 ft 305 kts 329°
2026-04-26 15:02 38.12733 12.35738 17035 ft 347 kts 330°
2026-04-26 15:02 38.14718 12.34057 17030 ft 337 kts 313°
2026-04-26 15:02 38.16115 12.31723 17030 ft 328 kts 298°
2026-04-26 15:03 38.16827 12.29004 17030 ft 323 kts 277°
2026-04-26 15:03 38.16681 12.26220 17030 ft 320 kts 258°
2026-04-26 15:03 38.15837 12.23624 17024 ft 320 kts 238°
2026-04-26 15:03 38.14355 12.21505 17021 ft 322 kts 220°
2026-04-26 15:04 38.12375 12.20153 17012 ft 326 kts 202°
2026-04-26 15:04 38.10198 12.19348 17018 ft 326 kts 198°
2026-04-26 15:04 38.07960 12.18570 17025 ft 345 kts 197°
2026-04-26 15:04 38.05580 12.17765 17032 ft 363 kts 198°
2026-04-26 15:05 38.03092 12.16873 17031 ft 378 kts 198°
2026-04-26 15:05 38.01399 12.16274 17024 ft 383 kts 198°
2026-04-26 15:05 37.97963 12.15059 17030 ft 383 kts 198°
2026-04-26 15:05 37.95391 12.14165 17030 ft 384 kts 198°
2026-04-26 15:06 37.92844 12.13261 17018 ft 384 kts 198°
2026-04-26 15:06 37.90268 12.12361 17023 ft 384 kts 198°
2026-04-26 15:06 37.87695 12.11450 17026 ft 384 kts 198°
2026-04-26 15:06 37.85118 12.10553 17029 ft 384 kts 198°
2026-04-26 15:07 37.79963 12.08745 17029 ft 384 kts 198°
2026-04-26 15:07 37.77387 12.07835 17030 ft 384 kts 198°
2026-04-26 15:07 37.74804 12.06939 17031 ft 384 kts 198°
2026-04-26 15:08 37.72230 12.06031 17027 ft 384 kts 198°
2026-04-26 15:08 37.69680 12.05146 17027 ft 384 kts 198°
2026-04-26 15:08 37.67098 12.04238 17029 ft 384 kts 198°
2026-04-26 15:08 37.64521 12.03345 17030 ft 384 kts 198°
2026-04-26 15:09 37.61943 12.02439 17027 ft 384 kts 198°
2026-04-26 15:09 37.59366 12.01548 17027 ft 384 kts 198°
2026-04-26 15:09 37.56790 12.00644 17019 ft 384 kts 198°
2026-04-26 15:09 37.54214 11.99772 17017 ft 384 kts 196°
2026-04-26 15:10 37.51542 11.99513 17013 ft 386 kts 182°
2026-04-26 15:10 37.49762 11.99473 17014 ft 386 kts 185°
2026-04-26 15:10 37.46180 11.99266 17015 ft 386 kts 185°
2026-04-26 15:10 37.43495 11.99170 17015 ft 385 kts 184°
2026-04-26 15:11 37.40818 11.99075 17015 ft 385 kts 185°
2026-04-26 15:11 37.38167 11.98943 17015 ft 385 kts 185°
2026-04-26 15:11 37.35488 11.98833 17015 ft 385 kts 184°
2026-04-26 15:11 37.32805 11.98725 17014 ft 385 kts 185°
2026-04-26 15:12 37.30131 11.98616 17013 ft 385 kts 185°
2026-04-26 15:12 37.27452 11.98499 17013 ft 385 kts 185°
2026-04-26 15:12 37.24773 11.98388 16998 ft 385 kts 185°
2026-04-26 15:12 37.22071 11.98270 16583 ft 392 kts 185°
2026-04-26 15:13 37.19349 11.98159 16059 ft 382 kts 184°
2026-04-26 15:13 37.16797 11.98072 15579 ft 353 kts 185°
2026-04-26 15:13 37.14419 11.97963 15128 ft 331 kts 185°
2026-04-26 15:13 37.12182 11.97867 14701 ft 313 kts 185°
2026-04-26 15:14 37.10054 11.97777 14296 ft 299 kts 185°
2026-04-26 15:14 37.08015 11.97694 13910 ft 287 kts 186°
2026-04-26 15:14 37.06057 11.97557 13496 ft 275 kts 194°
2026-04-26 15:14 37.04395 11.96593 13140 ft 258 kts 219°
2026-04-26 15:15 37.03142 11.94985 12798 ft 261 kts 237°
2026-04-26 15:15 37.02027 11.93155 12452 ft 268 kts 234°
2026-04-26 15:15 37.00860 11.91276 12100 ft 278 kts 235°
2026-04-26 15:15 36.99656 11.89329 11736 ft 287 kts 234°
2026-04-26 15:16 36.98365 11.87240 11398 ft 325 kts 234°
2026-04-26 15:16 36.96940 11.84952 11094 ft 331 kts 233°
2026-04-26 15:16 36.95559 11.82739 10788 ft 323 kts 234°
2026-04-26 15:16 36.94187 11.80532 10474 ft 318 kts 233°
2026-04-26 15:17 36.92843 11.78369 10245 ft 311 kts 234°
2026-04-26 15:17 36.91971 11.76961 10121 ft 307 kts 233°
2026-04-26 15:17 36.90233 11.74182 9848 ft 300 kts 234°
2026-04-26 15:17 36.88962 11.72137 9634 ft 296 kts 234°
2026-04-26 15:18 36.87700 11.70121 9424 ft 293 kts 234°
2026-04-26 15:18 36.86439 11.68092 8929 ft 299 kts 234°
2026-04-26 15:18 36.85100 11.66117 8393 ft 304 kts 224°
2026-04-26 15:18 36.83227 11.65045 7819 ft 296 kts 190°
2026-04-26 15:19 36.81269 11.65337 7275 ft 272 kts 162°
2026-04-26 15:19 36.79612 11.66233 6772 ft 247 kts 158°
2026-04-26 15:19 36.78075 11.67004 6254 ft 231 kts 157°
2026-04-26 15:19 36.76866 11.68205 5790 ft 219 kts 118°
2026-04-26 15:20 36.76448 11.69904 5685 ft 198 kts 89°
2026-04-26 15:20 36.76724 11.71524 5586 ft 187 kts 75°
2026-04-26 15:20 36.76974 11.73088 5490 ft 180 kts 75°
2026-04-26 15:20 36.77283 11.74567 5409 ft 173 kts 74°
2026-04-26 15:21 36.77557 11.76006 5319 ft 168 kts 73°
2026-04-26 15:21 36.77840 11.77420 5126 ft 171 kts 74°
2026-04-26 15:21 36.78133 11.78897 4807 ft 179 kts 73°
2026-04-26 15:21 36.78428 11.80415 4481 ft 179 kts 75°
2026-04-26 15:22 36.78720 11.81883 4142 ft 173 kts 74°
2026-04-26 15:22 36.78992 11.83309 3873 ft 164 kts 74°
2026-04-26 15:22 36.79269 11.84706 3252 ft 175 kts 74°
2026-04-26 15:22 36.79533 11.86161 2652 ft 171 kts 76°
2026-04-26 15:23 36.79789 11.87600 2288 ft 158 kts 76°
2026-04-26 15:23 36.80044 11.88856 2031 ft 140 kts 74°
2026-04-26 15:23 36.80270 11.89899 1777 ft 117 kts 77°
2026-04-26 15:23 36.80442 11.90860 1552 ft 112 kts 77°
2026-04-26 15:24 36.80566 11.91479 1459 ft 110 kts 76°
2026-04-26 15:24 36.80755 11.92421 1277 ft 113 kts 77°
2026-04-26 15:24 36.80957 11.93368 1104 ft 114 kts 78°
2026-04-26 15:24 36.81153 11.94340 929 ft 115 kts 78°
2026-04-26 15:25 36.81334 11.95294 753 ft 112 kts 80°
2026-04-26 15:25 36.81513 11.96189 626 ft 96 kts 78°
2026-04-26 15:25 36.81628 11.96812 581 ft 29 kts 78°
2026-04-26 15:25 36.81659 11.96963 580 ft 16 kts 74°
2026-04-26 15:26 36.81706 11.97043 580 ft 10 kts 321°
2026-04-26 15:26 36.81736 11.96975 580 ft 8 kts 296°
2026-04-26 15:26 36.81763 11.96913 580 ft 10 kts 297°
2026-04-26 15:26 36.81811 11.96858 579 ft 9 kts 30°
2026-04-26 15:27 36.81879 11.96898 579 ft 13 kts
2026-04-26 15:27 36.81911 11.96860 579 ft 0 kts 334°